Hourly Data Report for October 27, 2020

SAINT JOHN A
NEW BRUNSWICK
Current Station Operator: NAVCAN

45°18'58.000" N
65°53'24.000" W
108.80 m
8104901
71609
YSJ

Download Data

Hourly Data (October 2020)
Hourly Data Report for October 27, 2020
TIME
LST
Temp Definition
°C
Dew Point Definition
°C
Rel Hum Definition
%
Precip. Amount Definition
mm

Wind Dir Definition
10's deg

Wind Spd Definition
km/h
Visibility Definition
km
Stn Press Definition
kPa
Hmdx Definition


Wind Chill Definition


Weather Definition


00:00 9.0 9.0 100 LegendMM 17 16 4.8 100.36     Rain, Fog
01:00 9.7 9.7 100 LegendMM 19 11 4.8 100.27     Rain, Fog
02:00 10.2 10.2 100 LegendMM 24 8 4.8 100.23     Moderate Rain, Fog
03:00 10.4 10.4 100 LegendMM 27 12 4.8 100.20     Rain, Fog
04:00 10.1 10.1 100 LegendMM 27 5 4.8 100.17     Rain, Fog
05:00 9.9 9.7 99 LegendMM 31 22 8.1 100.20     Rain, Fog
06:00 7.4 6.7 95 LegendMM 33 27 8.1 100.25     Rain, Fog
07:00 6.2 5.4 94 LegendMM 33 22 11.3 100.26     Rain
08:00 5.9 5.3 96 LegendMM 33 15 16.1 100.32     Cloudy
09:00 5.4 4.4 94 LegendMM 34 17 24.1 100.38     LegendNANA
10:00 4.8 4.0 94 LegendMM 35 20 24.1 100.37     LegendNANA
11:00 4.7 2.7 87 LegendMM 34 21 24.1 100.39     Mostly Cloudy
12:00 5.0 1.2 77 LegendMM 32 26 24.1 100.42     LegendNANA
13:00 5.3 1.1 74 LegendMM 36 28 24.1 100.40     LegendNANA
14:00 4.8 0.0 71 LegendMM 34 27 24.1 100.40     Mostly Cloudy
15:00 5.0 0.3 72 LegendMM 34 19 24.1 100.38     LegendNANA
16:00 4.3 -1.1 68 LegendMM 32 16 24.1 100.41     LegendNANA
17:00 3.5 -1.4 70 LegendMM 35 10 24.1 100.48     Mostly Cloudy
18:00 2.8 -1.6 73 LegendMM 35 14 LegendMM 100.45     LegendNANA
19:00 2.4 -1.8 74 LegendMM 33 8 24.1 100.51     LegendNANA
20:00 2.6 -1.9 72 LegendMM 35 10 24.1 100.53     Cloudy
21:00 2.2 -1.4 77 LegendMM 33 9 24.1 100.65     LegendNANA
22:00 2.0 -2.4 72 LegendMM 33 18 24.1 100.65     LegendNANA
23:00 1.1 -3.4 72 LegendMM 33 11 24.1 100.60     Mostly Cloudy

Notes on Data Quality.

Legend

  • E = Estimated
  • M = Missing
  • NA = Not Available*
  • [empty] = Indicates an unobserved value
Date modified: